Location: Montreal
(45.5000°N, 73.5833°W)
Time: 20:11:58
(UTC-04:00)

OTV 5 (USA 277) - Pass Details

Date: 15 October 2017
Orbit: 404 x 417 km, 43.0° (Epoch: 07 September)

Event Time Altitude Azimuth Distance (km) Brightness Sun altitude
Rises 20:19:35 0° 269° (W) 2,355 ? -23.7°
Reaches altitude 10° 20:21:43 10° 264° (W) 1,492 ? -24.1°
Enters shadow 20:23:45 31° 246° (WSW) 751 ? -24.4°
